Overview Statistics Trail Chart Weather Telemetry Raw packets
 

This is the latest recevied weather packets stored in our database for station/object KD7AWQ. If no packets are shown the sender has not sent any weather packets the latest 10 day(s).

<< 101 102 103 104 105 106 107 >>
Time Temp. Humidity Pressure Rain* Wind** Luminosity Snow
1787689769 37.78° C 14% 1188.3 hPa 0 mm - 780 W/m² -
1787689465 37.78° C 14% 1188.2 hPa 0 mm - 885 W/m² -
1787689164 37.78° C 14% 1188.4 hPa 0 mm - 1035 W/m² -
1787688860 38.33° C 14% 1188.7 hPa 0 mm - 723 W/m² -
1787688556 36.67° C 14% 1188.4 hPa 0 mm - 770 W/m² -
1787688256 37.22° C 14% 1188.3 hPa 0 mm - 586 W/m² -
1787687951 37.78° C 14% 1188.6 hPa 0 mm - 672 W/m² -
1787687647 37.78° C 14% 1188.6 hPa 0 mm - 903 W/m² -
1787687342 37.22° C 14% 1188.9 hPa 0 mm - 1113 W/m² -
1787687037 37.22° C 14% 1188.6 hPa 0 mm - 1102 W/m² -
1787686734 37.22° C 14% 1188.6 hPa 0 mm - 968 W/m² -
1787686429 38.33° C 14% 1188.9 hPa 0 mm - 774 W/m² -
1787686124 38.33° C 15% 1188.7 hPa 0 mm - 1073 W/m² -
1787685819 37.78° C 15% 1188.9 hPa 0 mm - 883 W/m² -
1787685514 37.78° C 14% 1188.8 hPa 0 mm - 1009 W/m² -
1787685214 37.22° C 15% 1188.9 hPa 0 mm - 853 W/m² -
1787684910 37.78° C 15% 1189.2 hPa 0 mm - 1054 W/m² -
1787684605 37.22° C 15% 1189.3 hPa 0 mm - 1095 W/m² -
1787684299 36.67° C 16% 1189.3 hPa 0 mm - 1038 W/m² -
1787683995 36.67° C 16% 1189.3 hPa 0 mm - 1017 W/m² -
1787683693 36.67° C 16% 1189.3 hPa 0 mm - 1068 W/m² -
1787683389 36.67° C 17% 1189.6 hPa 0 mm - 166 W/m² -
1787683085 36.67° C 17% 1189.5 hPa 0 mm - 1031 W/m² -
1787682782 36.11° C 17% 1189.8 hPa 0 mm - 1008 W/m² -
1787682477 36.11° C 17% 1189.7 hPa 0 mm - 1006 W/m² -

* Rain latest hour (hover to see other rain measurements)
** Current wind speed in m/s (hover to see current wind gust speed)